Location: Bannatyne
(13.0833°N, 59.5333°W)
Time: 06:10:30
(UTC+00:00)

Sylda 5 - Pass Details

Date: 18 October 2019
Orbit: 572 x 35529 km, 6.7° (Epoch: 18 November)

Event Time Altitude Azimuth Distance (km) Brightness Sun altitude
Rises 22:43:15 0° 244° (WSW) 2,824 6.8 -16.7°
Reaches altitude 10° 22:45:56 10° 216° (SW) 1,878 5.1 -17.3°
Maximum altitude 22:48:13 16° 174° (S) 1,761 4.4 -17.9°
Enters shadow 22:51:01 11° 138° (SE) 2,592 4.9 -18.5°
